Regional Weather Roundup
Issued by NWS

Home | Current Version | Previous Version | Text Only | Print | Product List | Glossary Off
Versions: 1 2 3 4 5 6 7 8 9 10 11 12 13 14 15 16 17 18 19 20 21 22 23 24 25 26 27 28 29 30 31 32 33 34 35 36 37 38 39 40 41 42 43 44 45 46 47 48 49 50

581
ASUS45 KCYS 110210
RWRWY

WYOMING REGIONAL WEATHER ROUNDUP
NATIONAL WEATHER SERVICE CHEYENNE WY
700 PM MST SUN DEC 10 2017

NOTE:  "FAIR" INDICATES FEW OR NO CLOUDS BELOW 12,000 FEET
WITH NO SIGNIFICANT WEATHER AND/OR OBSTRUCTIONS TO VISIBILITY.

WYZ001-110300-
YELLOWSTONE NATIONAL PARK

CITY           SKY/WX    TMP DP  RH WIND       PRES   REMARKS
LK YELLOWSTONE   N/A     14  12  92 CALM      30.56S
W YELLOWSTONE  NOT AVBL

$$
WYZ002>013-054>058-071-098>099-110300-
NORTHERN WYOMING

CITY           SKY/WX    TMP DP  RH WIND       PRES   REMARKS
JACKSON        FAIR      16  13  88 E3        30.56S
CODY           FAIR      50   2  14 W14G24    30.32F
GREYBULL       FAIR      30  15  53 E6        30.34R WCI  24
WORLAND        FAIR      26  19  74 SE8       30.34S WCI  18
SHERIDAN       FAIR      34  15  46 SE3       30.26R
BUFFALO        FAIR      49   3  15 NE6       30.28R
GILLETTE       FAIR      39  18  42 W13       30.23S WCI  31
HULETT         FAIR      45  14  29 SW8       30.21R
NEWCASTLE      FAIR      36  14  41 N9        30.24S WCI  29

$$
WYZ014>020-022>026-101>103-110300-
CENTRAL WYOMING

CITY           SKY/WX    TMP DP  RH WIND       PRES   REMARKS
BIG PINEY      FAIR      30   1  29 NE9       30.49S WCI  22
PINEDALE       FAIR      32   3  29 NW10      30.48S WCI  24
DUBOIS         FAIR      34  -4  19 NW14      30.44F WCI  24
LANDER         FAIR      30  18  60 CALM      30.38F
RIVERTON       FAIR      26  14  60 E5        30.40S WCI  20
CASPER         FAIR      36  18  48 SW23      30.35F WCI  24
DOUGLAS        FAIR      34  19  54 NW13      30.32R WCI  25

$$
WYZ021-027>030-104>119-110300-
SOUTHERN WYOMING

CITY           SKY/WX    TMP DP  RH WIND       PRES   REMARKS
EVANSTON       FAIR      31  16  54 N8        30.55R WCI  23
FORT BRIDGER   FAIR      32   8  37 W10       30.55R WCI  23
ROCK SPRINGS   FAIR      35   4  27 SW18      30.48R WCI  24
DIXON          FAIR      23  12  63 E8        30.52F WCI  13
RAWLINS        FAIR      34   9  35 VRB3      30.48R
SARATOGA       FAIR      23  14  68 S10G17    30.47S WCI  12
LARAMIE        FAIR      25   4  40 SW5       30.39S WCI  19
CHEYENNE       FAIR      44   0  16 W15       30.31F
TORRINGTON     FAIR      42  10  27 W14       30.27R
PINE BLUFFS    FAIR      28   1  31 MISG      30.31S

$$




USA.gov is the U.S. government's official web portal to all federal, state and local government web resources and services.